Satellite-Ground Cal/Val Site Overpasses Predictions

Prediction of Satellite NPP Overpassing Cal/Val Site: Antarctic Dome C

Ground Cal/Val Site Location: Latitude: -75.10, Longitude: 123.35; Satellite-Ground Site NADIR distance within 100 km.

Table of predicted overpasses for the next 14.0 days since TLE Epoch: 1/20/2012
Interval Starting Time Ending Time Minimum Distance Time Minimum Distance (km)
1 01/21/2012 15:00:28 01/21/2012 15:00:52 01/21/2012 15:00:40 53.63
2 01/22/2012 14:41:39 01/22/2012 14:42:03 01/22/2012 14:41:51 55.22
3 01/23/2012 07:43:21 01/23/2012 07:43:41 01/23/2012 07:43:31 72.46
4 01/24/2012 07:24:31 01/24/2012 07:24:58 01/24/2012 07:24:44 35.29
5 01/26/2012 15:07:02 01/26/2012 15:07:12 01/26/2012 15:07:07 92.82
6 01/27/2012 14:48:07 01/27/2012 14:48:36 01/27/2012 14:48:21 17.97
7 01/29/2012 07:31:04 01/29/2012 07:31:33 01/29/2012 07:31:18 4.10
8 02/01/2012 14:54:51 02/01/2012 14:55:19 02/01/2012 14:55:05 21.46
9 02/02/2012 14:36:15 02/02/2012 14:36:30 02/02/2012 14:36:22 84.99


NCC Satellite Cal/Val Overpasses Prediction Service
